EHI
0 0 0 0 0 0 0 0 0 0 0 0 0 0 0 0 0 0 0 0 0 0 0 0 0 0 0 0 0 0 0 0 0 0 0 0 0 0 0 0 0 0 0
0 0 0 0 0 0 0 0 0 0 0 0 0 0 0 0 0 0 0 0 0 0 0 0 0 0 0 0 0 0 0 0 0 0 0 0 0 0 0 0 0 0 0
0 0 0 0 0 0 0 0 0 0 0 0 0 0 0 0 0 0 0 0 0 0 0 0 0 0 0 0 0 0 0 0 0 0 0 0 0 0 0 0 0 0 0
0 0 0 0 0 0 0 0 0 0 0 0 0 0 0 0 0 0 0 0 0 0 0 0 0 0 0 0 0 0 0 0 0 0 0 0 0 0 0 0 0 0 0
0 0 0 0 0 0 0 0 0 0 0 0 0 0 0 0 0 0 0 0 0 0 0 0 0 0 0 0 0 0 0 0 0 0 0 0 0 0 0 0 0 0 0
0 0 0 0 0 0 0 0 0 0 0 0 0 0 0 0 0 0 0 0 0 0 0 0 0 0 0 0 0 0 0 0 0 0 0 0 0 0 0 0 0 0 0
0 0 0 0 0 0 0 0 0 0 0 0 0 0 0 0 0 0 0 0 0 0 0 0 0 0 0 0 0 0 0 0 0 0 0 0 0 0 0 0 0 0 0
0 0 0 0 0 0 0 0 0 0 0 0 0 0 0 0 0 0 0 0 0 0 0 0 0 0 0 0 0 0 0 0 0 0 0 0 0 0 0 0 0 0 0
0 0 0 0 0 0 0 0 0 0 0 0 0 0 0 0 0 0 0 0 0 0 0 0 0 0 0 0 0 0 0 0 0 0 0 0 0 0 0 0 0 0 0
0 0 0 0 0 0 0 0 0 0 0 0 0 0 0 0 0 0 0 0 0 0 0 0 0 0 0 0 0 0 0 0 0 0 0 0 0 0 0 0 0 0 0
0 0 0 0 0 0 0 0 0 0 0 0 0 0 0 0 0 0 0 0 0 0 0 0 0 0 0 0 0 0 0 0 0 0 0 0 0 0 0 0 0 0 0
0 0 0 0 0 0 0 0 0 0 0 0 0 0 0 0 0 0 0 0 0 0 0 0 0 0 0 0 0 0 0 0 0 0 0 0 0 0 0 0 0 0 0
0 0 0 0 0 0 0 0 0 0 0 0 0 0 0 0 0 0 0 0 0 0 0 0 0 0 0 0 0 0 0 0 0 0 0 0 0 0 0 0 0 0 0
0 0 0 0 0 0 0 0 0 0 0 0 0 0 0 0 0 0 0 0 0 0 0 0 0 0 0 0 0 0 0 0 0 0 0 0 0 0 0 0 0 0 0
0 0 0 0 0 0 0 0 0 0 0 0 0 0 0 0 0 0 0 0 0 0 0 0 0 0 0 0 0 0 0 0 0 0 0 0 0 0 0 0 0 0 0
0 0 0 0 0 0 0 0 0 0 0 0 0 0 0 0 0 0 0 0 0 0 0 0 0 0 0 0 0 0 0 0 0 0 0 0 0 0 0 0 0 0 0
0 0 0 0 0 0 0 0 0 0 0 0 0 0 0 0 0 0 0 0 0 0 0 0 0 0 0 0 0 0 0 0 0 0 0 0 0 0 0 0 0 0 0
0 0 0 0 0 0 0 0 0 0 0 0 0 0 0 0 0 0 0 0 0 0 0 0 0 0 0 0 0 0 0 0 0 0 0 0 0 0 0 0 0 0 0
0 0 0 0 0 0 0 0 0 0 0 0 0 0 0 0 0 0 0 0 0 0 0 0 0 0 0 0 0 0 0 0 0 0 0 0 0 0 0 0 0 0 0
0 0 0 0 0 0 0 0 0 0 0 0 0 0 0 0 0 0 0 0 0 0 0 0 0 0 0 0 0 0 0 0 0 0 0 0 0 0 0 0 0 0 0
0 0 0 0 0 0 0 0 0 0 0 0 0 0 0 0 0 0 0 0 0 0 0 0 0 0 0 0 0 0 0 0 0 0 0 0 0 0 0 0 0 0 0
0 0 0 0 0 0 0 0 0 0 0 0 0 0 0 0 0 0 0 0 0 0 0 0 0 0 0 0 0 0 0 0 0 0 0 0 0 0 0 0 0 0 0
0 0 0 0 0 0 0 0 0 0 0 0 0 0 0 0 0 0 0 0 0 0 0 0 0 0 0 0 0 0 0 0 0 0 0 0 0 0 0 0 0 0 0
0 0 0 0 0 0 0 0 0 0 0 0 0 0 0 0 0 0 0 0 0 0 0 0 0 0 0 0 0 0 0 0 0 0 0 0 0 0 0 0 0 0 0
0 0 0 0 0 0 0 0 0 0 0 0 0 0 0 0 0 0 0 0 0 0 0 0 0 0 0 0 0 0 0 0 0 0 0 0 0 0 0 0 0 0 0
0 0 0 0 0 0 0 0 0 0 0 0 0 0 0 0 0 0 0 0 0 0 0 0 0 0 0 0 0 0 0 0 0 0 0 0 0 0 0 0 0 0 0
Wind_Speed
11 9 10 10 11 12 14 16 15 15 13 11 10 9 8 7 6 6 8 9 8 8 6 5 5 4 4 4 3 2 2 1 1 2 3 4 3 2 2 2 1 2 1
7 7 7 8 11 14 15 16 16 16 16 12 10 7 6 5 5 5 7 8 8 8 7 7 5 5 4 4 3 3 2 1 1 2 2 3 4 3 3 2 1 1 2
10 8 8 9 10 12 15 15 16 15 14 11 7 6 4 3 4 6 6 7 9 8 7 7 6 6 5 4 4 4 4 2 0 1 3 2 2 3 3 2 2 2 1
7 7 8 8 10 11 11 12 13 13 12 12 12 13 9 7 7 6 5 6 8 8 8 8 7 6 5 5 5 4 3 4 2 1 1 2 3 2 3 3 2 2 2
8 8 8 8 7 8 9 9 11 11 11 13 14 13 8 6 4 5 7 7 6 7 8 8 7 6 5 6 5 4 4 3 4 3 2 1 1 2 2 4 4 3 3
6 6 5 5 5 5 7 8 10 10 11 12 13 13 11 9 9 8 8 7 4 5 7 7 7 7 6 6 6 5 5 4 4 3 3 3 3 3 3 4 4 4 4
6 6 6 6 6 7 8 8 11 10 11 12 12 12 12 12 12 10 9 8 5 5 7 7 7 6 6 6 6 5 5 5 4 4 3 3 3 3 3 3 3 4 4
6 7 7 7 7 8 8 9 10 9 10 11 11 10 11 9 8 9 8 9 7 7 8 8 7 7 7 6 6 4 4 4 4 5 4 3 3 3 3 3 2 3 3
7 7 7 7 7 8 8 9 10 8 9 10 9 9 10 9 8 8 8 7 6 6 8 8 8 7 7 7 6 4 5 4 4 4 4 3 3 3 3 3 3 3 4
7 7 7 7 7 7 7 7 8 8 8 9 8 7 8 8 8 8 8 8 7 7 8 8 8 7 7 7 6 4 4 5 4 3 4 4 3 3 3 3 3 4 4
8 7 7 6 6 6 6 7 7 7 7 8 7 7 7 7 8 8 9 8 8 8 9 9 8 8 7 6 6 5 5 5 5 4 5 5 4 3 3 3 3 4 4
8 7 7 6 6 7 7 7 7 7 7 7 7 7 7 7 7 7 8 8 8 8 9 8 8 7 7 7 7 6 6 6 6 6 5 6 4 4 4 3 4 5 5
7 6 6 7 7 7 7 7 7 7 7 7 7 7 7 7 8 7 7 7 8 8 7 8 8 8 7 7 7 6 6 6 6 6 6 6 5 5 4 5 5 5 5
8 7 7 7 7 7 7 7 7 7 7 7 7 7 7 8 7 7 7 7 7 8 8 7 7 7 6 6 6 5 5 5 6 5 6 6 6 7 6 5 6 5 5
7 9 9 8 7 7 7 7 7 7 7 8 8 7 6 6 6 6 6 6 6 7 7 6 5 5 5 5 6 5 6 5 5 5 5 6 8 10 8 6 5 5 5
10 10 9 8 9 9 9 8 7 7 8 8 7 6 6 6 6 6 6 6 5 5 5 5 6 5 4 8 10 7 5 5 5 6 5 6 7 10 14 15 15 11 7
11 11 11 10 10 9 9 9 8 7 8 7 7 7 7 6 6 6 6 6 6 5 5 5 5 5 5 8 9 9 5 5 5 6 5 5 6 9 6 11 15 14 16
11 10 9 8 7 7 7 7 7 8 8 7 7 7 7 6 6 6 6 5 4 4 4 4 4 4 4 7 7 7 4 4 5 6 6 6 7 7 8 7 7 7 8
11 10 9 8 7 8 8 8 8 8 8 7 7 7 7 7 6 6 5 4 4 3 3 3 4 3 4 5 6 5 2 3 5 5 5 6 7 13 16 9 7 7 7
7 8 7 7 7 7 9 10 8 8 8 7 7 6 7 7 7 6 5 3 3 3 3 2 2 3 3 5 6 5 2 3 4 4 5 9 10 14 15 7 5 7 7
7 8 9 8 7 8 10 9 8 7 6 6 7 6 6 6 6 5 4 4 4 3 2 2 1 1 2 4 6 6 2 3 4 4 4 5 12 15 15 13 6 10 10
8 9 9 7 6 8 10 9 7 6 7 7 7 6 6 5 5 6 4 4 4 3 2 1 1 1 2 3 5 8 8 7 4 4 4 5 13 14 14 11 13 16 13
9 8 10 9 6 7 9 10 7 8 8 8 7 6 6 5 5 5 5 3 3 2 1 1 1 2 2 3 7 8 10 10 5 4 9 11 13 13 9 11 15 12 5
9 9 11 10 7 6 7 8 8 8 9 8 7 6 6 5 4 4 4 3 3 2 2 1 2 2 2 3 3 3 4 7 6 5 7 11 11 9 10 9 7 4 4
7 9 10 10 9 8 8 8 8 9 9 8 6 6 5 5 4 3 2 3 2 3 2 2 2 2 3 5 7 5 3 3 4 4 2 2 3 3 3 3 4 3 3
9 9 9 10 9 9 8 7 8 9 10 8 6 5 4 4 3 3 2 3 2 2 2 1 2 3 5 9 9 10 10 10 10 5 2 3 3 4 4 4 4 4 4
Wind_Direction
240 227 209 198 190 185 184 183 180 177 173 175 176 177 183 182 183 183 182 180 176 172 168 166 165 161 159 165 158 135 115 61 42 43 359 347 2 27 35 29 46 43 41
247 229 204 186 185 184 184 182 181 178 180 182 180 177 167 172 179 178 182 182 177 173 172 167 167 166 156 157 157 141 130 96 77 108 70 358 343 344 2 360 17 16 15
225 218 198 191 184 185 184 183 183 180 180 170 155 137 127 129 163 183 186 187 180 176 172 171 166 167 163 169 172 159 150 157 118 120 139 144 240 302 320 333 349 345 348
213 205 194 189 188 189 183 180 178 176 174 167 169 169 175 179 184 177 178 179 179 176 174 172 169 168 167 169 174 165 156 148 163 156 133 161 165 175 303 314 315 319 304
203 199 195 189 182 175 174 174 172 173 172 174 175 177 179 172 153 156 168 176 178 177 175 172 169 170 172 173 168 160 160 158 163 170 165 145 125 159 182 275 302 310 281
195 189 181 163 159 160 163 165 168 173 173 175 176 180 175 165 161 169 177 179 176 179 180 174 173 173 172 175 173 169 167 169 167 171 171 169 175 191 186 229 268 287 283
180 175 169 167 165 163 166 167 169 173 175 176 179 182 178 175 178 178 181 178 178 186 188 177 177 175 176 174 169 169 174 174 177 185 191 191 196 181 179 201 250 273 289
186 185 185 178 174 172 169 169 173 173 176 179 181 179 177 179 183 182 180 186 190 190 182 179 179 177 175 173 170 171 181 178 187 196 194 199 209 191 186 188 202 278 290
195 192 188 182 179 177 178 176 174 174 178 179 176 177 178 179 180 180 180 184 184 178 177 177 177 179 177 175 170 181 188 183 194 201 203 208 216 206 205 196 184 196 265
198 194 190 189 186 182 178 175 176 178 178 177 179 180 181 181 177 176 183 185 182 176 174 179 180 179 180 177 176 183 188 188 201 198 204 218 221 218 212 209 209 200 214
198 196 194 190 183 176 174 177 180 175 176 178 178 176 179 177 175 182 187 185 181 177 180 181 180 181 183 181 182 192 189 197 209 209 210 225 222 225 228 222 221 221 211
194 190 185 179 179 182 181 183 182 181 180 176 174 176 175 173 178 185 185 180 180 181 180 177 180 184 185 184 188 197 198 203 212 218 219 234 231 235 236 231 235 236 225
187 182 181 185 188 188 186 186 186 185 177 170 170 172 175 177 182 184 179 177 177 177 176 177 183 188 188 190 196 198 203 209 216 217 220 232 229 243 244 241 245 247 249
185 183 190 195 193 190 187 185 187 181 173 169 171 177 182 182 180 176 173 175 173 174 179 184 186 187 188 192 196 198 207 216 223 223 224 229 227 237 244 248 247 250 255
196 194 194 195 193 189 188 185 183 177 171 169 175 182 176 168 164 165 168 168 171 177 176 177 183 184 187 197 197 200 207 216 228 234 235 237 244 250 256 259 252 246 250
204 200 195 191 192 190 186 181 179 175 167 170 176 168 159 158 163 165 162 162 166 166 167 178 183 191 202 213 214 209 207 213 223 238 246 251 259 266 275 279 281 277 269
201 196 195 195 193 190 181 179 174 162 162 167 164 161 160 162 165 160 158 166 168 165 173 181 184 201 217 222 228 226 210 213 225 234 244 257 261 274 266 278 285 287 285
198 196 192 189 186 176 168 159 149 152 157 159 159 159 159 161 158 157 163 165 160 168 175 183 190 202 228 233 239 239 224 226 234 238 240 248 260 264 271 262 265 263 269
191 189 184 177 167 162 156 144 145 150 154 160 162 162 158 155 155 160 162 156 154 164 173 179 185 201 238 246 251 253 221 240 253 254 251 255 257 273 284 282 272 274 273
172 165 156 147 150 155 146 143 150 154 165 165 159 153 152 154 159 160 154 145 152 161 160 172 186 199 232 259 266 265 227 250 262 265 264 272 279 285 292 285 275 279 278
157 149 143 148 155 148 141 144 150 164 159 140 134 137 143 147 147 140 135 135 132 130 140 166 207 221 248 273 280 282 265 246 257 264 265 266 287 294 298 299 285 285 295
143 140 137 136 137 141 140 142 152 145 128 126 127 129 130 129 128 126 123 125 127 128 135 140 288 284 284 289 289 293 294 294 268 264 260 269 293 299 301 303 300 304 312
144 138 135 129 130 140 142 143 145 134 126 122 123 122 117 111 120 128 127 120 121 130 148 168 247 278 286 293 302 303 303 303 295 276 290 298 303 307 305 303 308 313 311
141 137 135 135 137 136 130 134 136 131 126 125 124 122 119 112 107 111 125 131 142 148 169 207 245 269 282 281 279 279 291 298 299 297 299 307 311 312 310 310 311 301 282
140 142 144 143 142 135 127 129 133 128 123 123 122 119 117 120 113 107 123 140 172 176 180 207 214 238 268 278 295 301 286 284 282 305 302 302 305 303 299 296 292 287 290
142 140 138 138 137 134 130 131 132 131 130 128 127 125 122 118 118 113 75 49 63 52 21 341 303 282 295 310 315 316 318 320 322 328 314 303 301 298 299 299 297 290 288